Location: Waco, TX
(31.5481°N, 97.1672°W)
Time: 04:14:08
(UTC-05:00)

Tiangong 2 - Visible Passes

Search period start: 20 June 2018 00:00
Search period end: 30 June 2018 00:00
Orbit: 291 x 297 km, 42.8° (Epoch: 19 June)

Date Brightness Start Highest point End Pass type
(mag) Time Alt. Az. Time Alt. Az. Time Alt. Az.
24 Jun 2.1 05:04:47 22° SSE 05:05:14 23° SE 05:07:22 10° E visible
25 Jun 0.5 05:10:15 41° SSW 05:10:55 67° SE 05:13:27 10° ENE visible
26 Jun 1.3 05:15:33 26° W 05:16:36 44° NNW 05:19:03 10° NE visible
27 Jun 2.6 05:20:42 13° WNW 05:22:16 21° NNW 05:24:20 10° NNE visible
28 Jun 4.2 03:55:25 11° ENE 03:55:25 11° ENE 03:55:31 10° ENE visible
28 Jun 3.3 05:26:31 10° NW 05:27:55 13° NNW 05:29:17 10° NNE visible
29 Jun 4.0 04:00:18 14° NE 04:00:18 14° NE 04:00:46 10° NE visible
